Regional Weather Roundup
Issued by NWS

Home | Current Version | Previous Version | Graphics & Text | Print | Product List | Glossary On
Versions: 1 2 3 4 5 6 7 8 9 10 11 12 13 14 15 16 17 18 19 20 21 22 23 24 25 26 27 28 29 30 31 32 33 34 35 36 37 38 39 40 41 42 43 44 45 46 47 48 49 50
000
ASUS43 KLOT 192308
RWRIL

ILLINOIS REGIONAL WEATHER ROUNDUP
NATIONAL WEATHER SERVICE CHICAGO/ROMEOVILLE IL
500 PM CST SUN FEB 19 2017

NOTE: "FAIR" INDICATES FEW OR NO CLOUDS BELOW 12,000 FEET WITH NO
SIGNIFICANT WEATHER AND/OR OBSTRUCTIONS TO VISIBILITY.

* THESE STATIONS ARE NOT UNDER NWS QUALITY CONTROL. THEY ALSO MAY NOT
  REPORT WEATHER SUCH AS PRECIPITATION OR FOG.

ILZ001-002-007-009-015-016-024-200000-
NORTHWEST ILLINOIS

CITY           SKY/WX    TMP DP  RH WIND       PRES   REMARKS
MOLINE         PTCLDY    68  42  38 SE8       29.97S
STERLING*      PTCLDY    63  44  50 E7        30.02S
SAVANNA*       PTCLDY    64  40  41 E7        30.00S
$$

ILZ003-004-008-010-011-017-018-200000-
NORTH CENTRAL ILLINOIS

CITY           SKY/WX    TMP DP  RH WIND       PRES   REMARKS
ROCKFORD       MOCLDY    60  40  47 SE5       30.05R
FREEPORT*      PTCLDY    57  39  51 SE5       30.04S
ROCHELLE*      PTCLDY    59  44  58 SE5       30.04S
DE KALB*       CLEAR     59  41  50 SE5       30.05R
PERU*          PTCLDY    65  36  34 S9        30.03S
$$

ILZ005-006-012>014-019>023-200000-
NORTHEAST ILLINOIS

CITY           SKY/WX    TMP DP  RH WIND       PRES   REMARKS
CHICAGO-OHARE  PTCLDY    62  31  31 E8        30.05R
CHICAGO-MIDWAY MOCLDY    58  31  35 E8        30.06R
AURORA         CLEAR     62  41  46 SE6       30.05R
LANSING*       PTCLDY    59  44  56 S6        30.06S
JOLIET*        PTCLDY    64  43  46 SE5       30.06R
WAUKEGAN       PTCLDY    48  32  53 SE5       30.06R
DUPAGE AIRPORT CLEAR     60  37  42 S5        30.04S
KANKAKEE*      CLOUDY    61  45  56 CALM      30.07S
WHEELING       CLEAR     57  31  37 E5        30.07R
MORRIS*        CLOUDY    63  35  35 CALM      30.04R
ROMEOVILLE*    PTCLDY    60  45  56 S7        30.05S
NORTHERLY ISL    N/A     45  31  58 CALM        N/A
$$

LMZ740>746-200000-
SOUTHERN LAKE MICHIGAN

STATION/POSITION SKY/WX   TEMP    WIND        PRES    VSBY  WAVE
                          AIR SEA DIR/SP/G                  HT/PER
                          (F)     (DEG/KT/KT) (MB)    (MI)  (FT/S)
HARRISON CRIB              46     150/  6/  7   N/A
BURNHAM HARBOR             44      CALM  /  3   N/A
CALUMET HARBOR             44      90/  7/  8 1017.7S
BURNS HARBOR               41      80/  9/ 11 1019.0R
MICHIGAN CITY              40      40/ 10/ 11   N/A
$$

ILZ025>027-034>036-040-047-049-050-058-095>099-200000-
WEST-CENTRAL ILLINOIS

CITY           SKY/WX    TMP DP  RH WIND       PRES   REMARKS
QUINCY         PTCLDY    70  48  45 SE9       29.97S
GALESBURG*     CLOUDY    66  47  49 SE6       29.98F
MACOMB*        CLOUDY    69  45  41 SE8       30.00S
JACKSONVILLE*  PTCLDY    68  49  51 S9        30.01R
PITTSFIELD*    PTCLDY    70  49  45 SE10      30.00S
$$

ILZ028>032-037-038-041>044-048-051>054-059>061-200000-
CENTRAL ILLINOIS

CITY           SKY/WX    TMP DP  RH WIND       PRES   REMARKS
PONTIAC        CLEAR     64  42  45 S6        30.05R
BLOOMINGTON    CLEAR     61  43  51 S7        30.05F
DECATUR        CLEAR     63  47  55 SE10      30.05S
PEORIA         CLEAR     65  45  48 S6        30.02S
LACON*         CLEAR     64  42  43 NE6       30.01S
LINCOLN*       CLEAR     65  48  53 SE6       30.02F
SPRINGFIELD    CLEAR     67  48  50 SE10      30.02S
TAYLORVILLE    CLEAR     64  49  60 SE8       30.04S
$$

ILZ033-039-045-046-055>057-062-063-200000-
EAST-CENTRAL ILLINOIS

CITY           SKY/WX    TMP DP  RH WIND       PRES   REMARKS
CHAMPAIGN      CLEAR     64  45  49 S8        30.06S
RANTOUL*       CLEAR     66  46  48 S5        30.06S
MATTOON        CLEAR     58  51  78 S8        30.07F HAZE
PARIS*         CLEAR     62  49  62 S7        30.09S
$$

ILZ079-100>102-200000-
SOUTHWEST ILLINOIS

CITY           SKY/WX    TMP DP  RH WIND       PRES   REMARKS
ALTON          PTCLDY    64  52  63 SE12      30.03S
BELLEVILLE     CLEAR     67  55  65 E12       30.02S
CAHOKIA*       CLEAR     69  51  52 SE9       30.02S
SPARTA*        CLEAR     66  54  66 SE9       30.05S
$$

ILZ064>066-069>071-074>076-080>082-084>086-088>090-092>094-200000-
SOUTH-CENTRAL ILLINOIS

CITY           SKY/WX    TMP DP  RH WIND       PRES   REMARKS
CARBONDALE     CLEAR     64  55  72 SE8       30.06S
CAIRO*         CLEAR     62  56  81 CALM      30.07F
EFFINGHAM*     CLEAR     59  53  79 SE8       30.09F
MARION         CLEAR     68  55  64 S6        30.08S
MT. VERNON     CLEAR     60  53  77 SE6       30.08F
CENTRALIA*     CLEAR     63  54  73 SE10      30.06R
SALEM*         CLEAR     64  52  64 SE7       30.07S
METROPOLIS*    CLEAR     60  54  80 CALM      30.09S
$$

ILZ067-068-072-073-078-083-087-091-200000-
SOUTHEAST ILLINOIS

CITY           SKY/WX    TMP DP  RH WIND       PRES   REMARKS
LAWRENCEVILLE  CLEAR     55  48  77 S6        30.12R HAZE
FLORA*         CLOUDY    56  52  85 S7        30.10S FOG
FAIRFIELD*     CLOUDY    55  52  90 SE5       30.09S FOG
HARRISBURG*    CLEAR     60  55  85 E7        30.10R
ROBINSON*      CLEAR     56  49  76 S6        30.11S
CARMI*         CLOUDY    55  52  92 SE6       30.10S
$$

ABBREVIATIONS USED IN REMARKS
   TC - TEMPERATURE IN CELSIUS
  WCI - WIND CHILL INDEX
   HX - HEAT INDEX
  VSB - VISIBILITY
$$




USA.gov is the U.S. government's official web portal to all federal, state and local government web resources and services.